Address 0x715349b97794e10b47b8fce3bd6f828c4640c219

Overview

Balance:
2.922648697080090121 BNB

Token:
My Name Tag:
Not Available

Txn Hash
Block
From
To
Value [Txn Fee]
0x4614bd542db7a4c1afc952e3e4dc18ec61d8d35b415508a254ebd8d5a7b8aacb97842882021-06-16 13:30:043 days 1 hr ago0x715349b97794e10b47b8fce3bd6f828c4640c219OUT 0x850a807687ba8cf5893632bbbc300f9c2054c4e20 BNB0.00182527
0x5b755da0451d99daf4f01a44c116d2fcb11d503b7133bd55103612fa59be2fa397839922021-06-16 13:15:163 days 1 hr ago0x715349b97794e10b47b8fce3bd6f828c4640c219OUT 0x850a807687ba8cf5893632bbbc300f9c2054c4e20 BNB0.00225321
0x986cf605f40e9691eaf13c19fc32835bca013474ad4d5a62380107ece561049697839772021-06-16 13:14:313 days 1 hr ago0x715349b97794e10b47b8fce3bd6f828c4640c219OUT 0x84b9b910527ad5c03a9ca831909e21e236ea7b060 BNB0.00051306
0x20e69a6fbd68c3838d0d0505f3dbfa5362f17dae6e9d2a168edaaf01756c5f8197839462021-06-16 13:12:583 days 1 hr ago0x715349b97794e10b47b8fce3bd6f828c4640c219OUT 0xbfeaed06cdaed6573a1858540dc29e3ac685372c0 BNB0.0003471
0x9bd4eeb73bd1e06e128a2d9cb421ddd898daa47573c2e79641838d1036dc5da697838402021-06-16 13:07:403 days 1 hr ago0x715349b97794e10b47b8fce3bd6f828c4640c219OUT 0x850a807687ba8cf5893632bbbc300f9c2054c4e20 BNB0.00312176
0x74b9e6698f72ae6b4ac3e05f5f2651e5aa575db51771af47281600904e8b5b4e97838352021-06-16 13:07:253 days 1 hr ago0x715349b97794e10b47b8fce3bd6f828c4640c219OUT 0x850a807687ba8cf5893632bbbc300f9c2054c4e20 BNB0.00312176
0xdbe8eba1624e26002c385ef2fecfc750cced44551bd0f350b0c4c89b5503a27997838302021-06-16 13:07:103 days 1 hr ago0x715349b97794e10b47b8fce3bd6f828c4640c219OUT 0x850a807687ba8cf5893632bbbc300f9c2054c4e20 BNB0.00312176
0xf8d8bef9efa9b0fbd54d82eb474eff09f2828223ee06f5563ed159561388d2be97838262021-06-16 13:06:583 days 1 hr ago0x715349b97794e10b47b8fce3bd6f828c4640c219OUT 0x850a807687ba8cf5893632bbbc300f9c2054c4e20 BNB0.00357176
0xf5cded6d58088b012e5239a1f4627e8a78be667f6d2ccc1ef6da045c7924d4f597837802021-06-16 13:04:403 days 1 hr ago0x715349b97794e10b47b8fce3bd6f828c4640c219OUT 0xbfeaed06cdaed6573a1858540dc29e3ac685372c0 BNB0.00335171
0xe9e0a0833c74ea111c523927baabfdd9e874ac542439a4acec5b56c3d69dedc397837212021-06-16 13:01:433 days 2 hrs ago0x715349b97794e10b47b8fce3bd6f828c4640c219OUT 0x006953897ea997764f003ed34b3c8d2935afeada0 BNB0.0004425
0x9c297d5a8d020ddf21761cb5206c431072875af83d1529c855425d155b4213b897837052021-06-16 13:00:553 days 2 hrs ago0x715349b97794e10b47b8fce3bd6f828c4640c219OUT Contract Creation0 BNB0.12031756
0xed90e54378b78a2b0c4b33312a1e366089d33a6fb43676baf3b022604bea37a797830652021-06-16 12:28:553 days 2 hrs ago0x715349b97794e10b47b8fce3bd6f828c4640c219OUT 0x7d1324c4d3e3d9728c5497082e2407474848e3e70 BNB0.00225333
0x5514c476e82c1e369ff656e8c3514f5fcbf0c371900d1247f96a27a4ed4e08d797830222021-06-16 12:26:463 days 2 hrs ago0x715349b97794e10b47b8fce3bd6f828c4640c219OUT 0xf4edf4fd9db75358bf186c72976a9a952ed2b0fd0 BNB0.0003471
0x92d3bfa027eead870dce41d052c145482d5710cfa1587e340f98841188769eae97829882021-06-16 12:25:043 days 2 hrs ago0x715349b97794e10b47b8fce3bd6f828c4640c219OUT 0x7d1324c4d3e3d9728c5497082e2407474848e3e70 BNB0.00312176
0xd305a8eb8a8dbb2820244ac170f90bbd7e918ae647eb60c35df61d6c4a5d673797829832021-06-16 12:24:493 days 2 hrs ago0x715349b97794e10b47b8fce3bd6f828c4640c219OUT 0x7d1324c4d3e3d9728c5497082e2407474848e3e70 BNB0.00312176
0xbc019a63bde06a1ed77236d2fdc19c90d86482a5060d5f3c69e42c29489e6a6197829802021-06-16 12:24:403 days 2 hrs ago0x715349b97794e10b47b8fce3bd6f828c4640c219OUT 0x7d1324c4d3e3d9728c5497082e2407474848e3e70 BNB0.00342176
0x225a93f11dfa4ad8bfd87aac79576fb16049d81a5d696a0f02159539a98ed56797829752021-06-16 12:24:253 days 2 hrs ago0x715349b97794e10b47b8fce3bd6f828c4640c219OUT 0x006953897ea997764f003ed34b3c8d2935afeada0 BNB0.0004425
0x3ec549537b2abf5cb1db54991963b4d779f3cf28f8820e2253ad5548242b1c2097829522021-06-16 12:23:163 days 2 hrs ago0x715349b97794e10b47b8fce3bd6f828c4640c219OUT 0x84b9b910527ad5c03a9ca831909e21e236ea7b060 BNB0.00051306
0x8068737c3836a4a3759c428703f7bf6c612c54a6ff6377b72c1509d45abd93ae97829232021-06-16 12:21:493 days 2 hrs ago0x715349b97794e10b47b8fce3bd6f828c4640c219OUT 0x006953897ea997764f003ed34b3c8d2935afeada0 BNB0.00107995
0x789e92fdf29bef87563e926600916346d195ae4aaf060d6a1831aabd2a5e8e8297829122021-06-16 12:21:163 days 2 hrs ago0x715349b97794e10b47b8fce3bd6f828c4640c219OUT 0xf4edf4fd9db75358bf186c72976a9a952ed2b0fd0 BNB0.00335183
0xb30642984c3445a9e389d6f652889e0071edaa6ff73805618d4d6007769499ed97829022021-06-16 12:20:463 days 2 hrs ago0x715349b97794e10b47b8fce3bd6f828c4640c219OUT Contract Creation0 BNB0.12031756
0x6da6a9ac3b77ddca31aead4543cd18a27b054f818d9f3b2ecbf60c94fcd3677597827912021-06-16 12:15:133 days 2 hrs ago0x715349b97794e10b47b8fce3bd6f828c4640c219OUT 0x021e76fda6102ec787b19f5f51ad949b3f39ef7e0 BNB0.00225333
0xd746889f5c30199ae28f60767dd102409ced5e725eb115f42b5ded4acc101e6297827802021-06-16 12:14:403 days 2 hrs ago0x715349b97794e10b47b8fce3bd6f828c4640c219OUT 0x84b9b910527ad5c03a9ca831909e21e236ea7b060 BNB0.00051306
0xa174796ccef1c24230f630166fa8679fb5bf187f12cbb2b85da911023b4613e197825622021-06-16 12:03:463 days 2 hrs ago0x715349b97794e10b47b8fce3bd6f828c4640c219OUT 0xabd516f3cf5f7fe081064364c21cab10141202570 BNB0.0003471
0x998f964df63cbb48c7dae0a79378f8a55098f923b199e3cf2b4daf8297e838cb97825362021-06-16 12:02:283 days 2 hrs ago0x715349b97794e10b47b8fce3bd6f828c4640c219OUT 0x021e76fda6102ec787b19f5f51ad949b3f39ef7e0 BNB0.00357176
[ Download CSV Export 
Latest 5 internal transactions
Parent Txn Hash Block From To Value
0xc4389731addf96b1dd4011448bffbc2c84282071cc84cfee34e8cccfd14485b597529172021-06-15 11:21:174 days 3 hrs ago 0x5000d2bcfd75cbc91f2bab5538795decfd9dd3370x715349b97794e10b47b8fce3bd6f828c4640c219527 wei
0xf843399b161b68384e77ee7180d4b8c9702142e7676f73135add32a6a7e1602e97212852021-06-14 8:59:405 days 6 hrs ago 0xd99d1c33f9fc3444f8101754abc46c52416550d10x715349b97794e10b47b8fce3bd6f828c4640c2190.000000009999999998 BNB
0xc7f43dc5fa77182ffb7e4b452212d9d5ac77d00ac38996caaac48b88e82d14c996357162021-06-11 9:41:138 days 5 hrs ago 0x84a643ecd4cad8ebf1739148bcb53979450da6d20x715349b97794e10b47b8fce3bd6f828c4640c2190.2 BNB
0x34ba3742a1f2f7b14f931c3b359e91aec1b6c3f9b7053351d8d941495da171c995837782021-06-09 14:24:1910 days 37 mins ago 0x1580bdd9df128ca5f10bfaf77eef280a255f5d8b0x715349b97794e10b47b8fce3bd6f828c4640c2190.000000100998142572 BNB
0xa9ace3d14d87616e497e4681a6ad71c041b4610a3e414a7f1cec932b3778544493244802021-05-31 14:16:3619 days 45 mins ago 0x124359fe3dbdcb0954c6289199b8735a790c05fc0x715349b97794e10b47b8fce3bd6f828c4640c2190.001000000000001 BNB
[ Download CSV Export 
Loading

Contract Name:
0 BNB

Compiler Version
0

Optimization Enabled:
0 BNB

Other Settings:
-NA-
Block Transaction Gas Used Reward
Age Block Fee Address BC Fee Address Voting Power Jailed Incoming
Block Uncle Number Difficulty Gas Used Reward
Loading